GOES-S [+]

Last updated on Wed Sep 09 2020 05:41:48 GMT+0000 (Coordinated Universal Time)

1 43226U 18022A 20252.72425118 .00000096 00000-0 00000-0 0 9996 2 43226 0.0715 290.1318 0000367 248.0365 293.6308 1.00270229 9283

Satellite not in orbit

GOES-S [+]